Location: Cutler
(25.6150°N, 80.3110°W)
Time: 16:37:32
(UTC-05:00)

N. Korean satellite - Pass Details

Date: 16 November 2017
Orbit: 460 x 515 km, 97.2° (Epoch: 17 November)

Event Time Altitude Azimuth Distance (km) Brightness Sun altitude
Rises 19:29:49 0° 211° (SSW) 2,469 10.7 -26.4°
Reaches altitude 10° 19:33:18 10° 249° (WSW) 1,604 10.1 -27.2°
Maximum altitude 19:34:13 11° 265° (W) 1,555 10.1 -27.4°
Drops below altitude 10° 19:35:09 10° 281° (W) 1,610 10.1 -27.6°
Sets 19:38:41 0° 319° (NW) 2,501 10.6 -28.4°
